sat.trackr.live / text

‹ back to catalog

STARLINK-5127

NORAD 54010 · 2022-125AY

PAYLOAD ACTIVE UNKNOWN

§ Identity

Operator
Country
US
Launch date
2022-10-05
Launch site
AFWTR
Launch vehicle
Mass (kg)
RCS (m²)

Purposes: comms

External: N2YO · Heavens-Above · Gunter

§ Orbital elements

Epoch: 2026-05-25T05:26:50.055936Z

Period
95.44 min
Inclination
53.2132°
Eccentricity
0.0001568
Mean motion
15.08839098 rev/d
Perigee alt
538.7 km
Apogee alt
540.8 km
Semi-major
6,917.9 km
B*
-1.4418e-5
RAAN
220.1003°
Arg perigee
97.1338°
Mean anomaly
262.9833°
Rev number
20,116

§ Raw data

STARLINK-51271 54010U 22125AY  26145.22696824 -.00000517  00000+0 -14418-4 0  99952 54010  53.2132 220.1003 0001568  97.1338 262.9833 15.08839098201161

JSON: /api/v1/satellites/54010 · /tle

For live sub-satellite position, see the globe view (requires WebGL).

§ Visibility from observer

Set your observer location to see the next 7 days of passes ≥ 10°. The values pass through the URL so the page stays shareable.

No JS? Fill the form by hand. The geolocation button needs JavaScript.